Погода в Урицке

Погода в Урицке : погода сейчас, прогноз погоды и архив. Всё, что Вы хотите узнать о погоде в Урицке!

Поиск расширенной информации на нашем сайте:

Другие новости

Новости СМИ2

Главная страница сайта

Новости сайта

02.10.2013

Напоминаем, что на нашем новом сайте вы можете получить высокодетализированные прогнозы погоды по пунктам России, СНГ и мира (включающие важные для авиации метеовеличины, такие как направление и скорость ветра, видимость, явления погоды, количество и форма облачности, нижняя и верхняя граница облачности), а также ознакомиться с разнообразными материалами по авиационной метеорологии и подборкой полезных ссылок на эту тему.

Сайт Метеоцентр.Азия посвящён разработке технологий оптимизации авиаметеорологического обслуживания, включая проектирование и перспективное создание нескольких автоматизированных авиаметеорологических систем:
- система выпуска высокодетальных прогностических карт явлений погоды для нижнего воздушного пространства по России и ближнему зарубежью;
- система верификации прогнозов TAF (выпускаемых синоптиками официальных АМСГ РФ и ближнего зарубежья) и AUTOTAF (выпускаемых сайтом Метеоцентр.Азия) - выявление ошибок, онлайн-сопоставление с фактической погодой METAR, автоматическое внесение коррективов в прогнозы при резком отклонении фактической погоды от прогноза, подсчёт оправдываемости прогнозов по элементам и в целом;
- система обработки, анализа и отображения авиаметеорологической информации для применения провайдерами метеорологической информации.

Рекомендуем: Ролмастер изготовление Рольставней forec.ru.

Погода в Урицке - сегодня

Время (UTC), дата Ветер
(°,м/с) 
Видим.   Явления Облачность Т
(°С)
Тd
(°С)
f(%) Тe
(°С)
Pmin
(гПа)
dP
(гПа)
Po
(мм)
O2
(г/м3)
Тmin Tmax R s Состояние
почвы
21 17.01.17 100 (В) н/о  дымка{туман}  ясно 
-20.6 -22.5 85 -23  1040.9  -1  758  332           
00 18.01.17 тихо ()   н/о  {туман}  ясно 
-21.2 -24.4 75 -21  1040.1  -0.8  758  333           
03 18.01.17 120 (ЮВ) н/о  туман  ясно 
-20.4 -21.6 90 -21  1038.9  -1  757  331        19  равномерный
сухой снег
100% 
06 18.01.17 130 (ЮВ) 20000 м  {туман}  3/0 верхняя 
[Ci fib]
-18.2 -20.8 80 -18  1038.5  -0.2  757  328  -21.4         
09 18.01.17 150 (ЮВ) 20000 м    ясно 
-15.1 -18.5 75 -19  1036.9  -1.2  756  324           
12 18.01.17 120 (ЮВ) 20000 м    3/0 верхняя 
[Ci sp]
-16.7 -20.1 75 -22  1036.6  -0.4  755  326           
15 18.01.17 130 (ЮВ) н/о    4/0 верхняя 
[Ci sp]
-17.8 -21.1 75 -22  1035.7  -1  755  327    -14.7       
18 18.01.17 140 (ЮВ) н/о    8/0 верхняя 
[Ci sp]
-17.2 -20.6 75 -20  1034.2  -1.4  754  326    -14.7       
21 18.01.17 160 (Ю) н/о    ясно 
-19 -22.3 75 -22  1032.7  -1.8  752  327           
00 19.01.17 130 (ЮВ) н/о    ясно 
-19.9 -23.2 75 -24  1031.3  -1.3  751  328           
03 19.01.17 140 (ЮВ) н/о    ясно 
-21.6 -24.8 75 -26  1030.3  -1.3  750  330        19  равномерный
сухой снег
100% 
06 19.01.17 160 (Ю) 20000 м    3/0 верхняя 
[Ci sp]
-22.5 -25.7 75 -28  1029.6  -0.7  750  331  -21.9         
09 19.01.17 180 (Ю) 20000 м    6/0 верхняя 
[Ci sp]
-19 -23.1 70 -24  1027.7  -1.5  749  326           
12 19.01.17 150 (ЮВ) 20000 м    8/0 верхняя 
[Ci sp]
-20.4 -24.4 70 -23  1027.3  -0.5  748  328           
15 19.01.17 170 (Ю) н/о    3/0 верхняя 
[Ci sp]
-20.6 -24.6 70 -26  1026.1  -1.2  747  327    -18.8       
18 19.01.17 190 (Ю) н/о    ясно 
-21.4 -24.7 75 -26  1024.1  -2  746  328    -18.8       
21 19.01.17 210 (ЮЗ) н/о    3/0 верхняя 
[Ci sp]
-21.8 -25 75 -29  1022.7  -1.5  745  328           
00 20.01.17 210 (ЮЗ) н/о    4/0 верхняя 
[Ci sp]
-21.5 -25.6 69 -29  1022.4  -1.2  744  327           
03 20.01.17 190 (Ю) н/о    3/0 верхняя 
[Ci sp]
-21.3 -24.6 75 -30  1019.6  -1.7  743  326        19  равномерный
сухой снег
100% 
06 20.01.17 190 (Ю) 20000 м  позёмок  ясно 
-21.1 -24.4 75 -30  1019.2  -0.4  742  326  -22.1         
09 20.01.17 200 (Ю) 10  20000 м  позёмок  3/0 верхняя 
[Ci sp]
-20.8 -24.8 70 -31  1017.3  -1.9  741  325           
12 20.01.17 200 (Ю) 10  20000 м  позёмок  5/5 600 м 
[Sc]
-21.2 -24.4 75 -31  1015.2  -1.9  740  325           
15 20.01.17 190 (Ю) 11  н/о  метель  8/8 600 м 
[Sc]
-20.4 -23.7 75 -31  1013.6  -1.5  738  323    -20.2       
18 20.01.17 180 (Ю) 12  н/о  слаб. снег  10/10 600 м 
[Sc]
-17.5 -20.9 75 -27  1010.2  -2.9  736  318    -20.2       
21 20.01.17 190 (Ю) 15-15{18}  н/о  слаб. снег  10/10 300 м 
[Ns]
-16.5 -19.9 75 -27  1007.5  -2.6  734  316           
Время (UTC), дата Ветер
(°,м/с) 
Видим.   Явления Облачность Т
(°С)
Тd
(°С)
f(%) Тe
(°С)
Pmin
(гПа)
dP
(гПа)
Po
(мм)
O2
(г/м3)
Тmin Tmax R s Состояние
почвы

Для получения пояснительной информации подведите курсор к названию столбца.

ПОГОДА в Урицке - архив

Всё, что Вы хотите узнать о погоде в Урицке - удобно и подробно!

Выберите нужную дату (начиная с 1 января 2015* года) и нажмите кнопку "Найти".
Будут отображены архивные сводки погоды по пункту Урицк, начиная с указанной даты.


Отображать данные в формате CSV (для использования в таблицах Excel)


Внимание! Наш архив погоды предназначен исключительно для личного некоммерческого использования в познавательных целях. Если Вам необходимы официальные справки о состоянии погоды (для производственных, юридических, коммерческих и т.п. целей), обращайтесь в органы Росгидромета.

*Примечание: данная дата относится к архиву по метеостанциям СССР (Россия, СНГ, Балтия).
Архив по метеостанциям Зарубежной Европы и Азии (кроме Китая) хранится 10 дней, по другим регионам земного шара (Китай, Африка, Америка, Австралия, Океания) - 1 день.

Урицк - район местоположения метеостанции


Название, широта, долгота, высота метеостанции:
Урицк 53.3°ш. 65.6°д. 216 м над ур. моря [Казахстан]

Дополнительная информация

В oтличие oт бoльшинства пoгoдных сайтoв мы публикуем пoдрoбную метеoинфoрмацию в детальнoм прoфессиoнальнoм фoрмате.

Характеристики температуры и влажнoсти вoздуха измеряются на высoте 2 м в тени вдали oт зданий и деревьев.
Скoрoсть ветра измеряется на высoте 10 м (на урoвне рoста челoвека скoрoсть ветра ниже в 1.5-2 раза). Если метеoстанция нахoдится в гoрoде или в лесу, тo скoрoсть ветра занижена на 2-4 м/с пo сравнению с oткрытым местoм. Скoрoсть ветра над акватoриями крупных рек и oзёр, а также на вершинах хoлмoв на 2-5 м/с выше, чем в oбычных услoвиях.
Атмoсфернoе давление в разных тoчках местнoсти мoжет значительнo oтличаться oт давления на метеoстанции, в зависимoсти oт услoвий рельефа (при пoдъёме на 10 м давление пoнижается примернo на 1 мм рт.ст.).